Aeroporto :
LOGIN :

Iscrizione | Disclaimer

   EN    FR    IT 

 










Sommario :    VFR   VFR Marginale   IFR   IFR Intensivo   IFR Molto Intensivo
Visibilità : 
Base nubi : 
>= 8 km
>= 3000ft
5 / 8 km
1000 / 3000 ft
1500m / 5 km
500 / 1000 ft
800 / 1500m
200 / 500 ft
< 800m
< 200 ft
Simboli :   Temporali  Nebbia  Neve Forte  Precipitazioni Forti  Vento > 20 kt
SIGMETs :   Varie  Temporali  Ghiacco  Turbolenza  Onda orograficha  Ceneri Vulcaniche







- Altitudine del aeroporto : 26 ft
- Codice IATA : BIA
- Carte del aeroporto


LFKB - Bastia

ULTIMO METAR :
  • 172200Z AUTO 25003KT 220V290 CAVOK 22/17 Q1012 NOSIG

METARs OBSOLETI :
  • 172130Z AUTO 23003KT CAVOK 21/18 Q1012 NOSIG
  • 172100Z AUTO 26002KT CAVOK 21/18 Q1012 NOSIG
  • 172030Z AUTO 23003KT CAVOK 22/18 Q1012 NOSIG
  • 172000Z AUTO 19002KT CAVOK 22/18 Q1012 NOSIG
  • 171930Z AUTO 19003KT CAVOK 23/19 Q1012 NOSIG

TAF TAF LFKB
Valido dal 17 a 21 ore il 18 a 21 ore UTC


172000Z 1721/1821 22003KT CAVOK TX29/1812Z TN19/1804Z
BECMG 1807/1809 04010KT
TEMPO 1812/1815 12010KT FEW035CB BKN150
BECMG 1818/1820 23003KT
ATIS : +33 4 95 59 19 40
Nessun NOTAM noto per questo aeroporto.



MetMap, La meteo Aeronautica in un colpo d'occhio ! - Copyright ORBIFLY Dicembre 2007 - Disclaimer

ORBIFLY MET'MAP TEAM :

Programmazione e sviluppo : Alexandra Zaïnal
Concezione e sviluppo : Baudouin d'Aumeries
Co-Programmazione e sviluppo : Marc-Olivier Méhu
Supporto tecnico e logistico : Manuel Goepfert
Aiuto per la traduzione : Arnaldo La Scala

Contatto : metmap@orbifly.com




FONTI E CREDITI :

   NOAA